EW0797 Weather Reports


time (UTC)temp
F
wind
direction
speed
knots
gust
knots
rain 1hr
in
rain 24hr
in
rain mn
in
humidity
%
barometer
mb
20260905205004 98 340 1.7 6.1 0.00 0.05 0.05 45 1011.0
20260905204504 99 257 2.6 5.2 0.00 0.05 0.05 45 1011.2
20260905204005 99 255 2.6 6.1 0.00 0.05 0.05 45 1011.2
20260905203004 99 274 1.7 6.1 0.00 0.05 0.05 44 1011.2
20260905202004 98 307 2.6 7.0 0.00 0.05 0.05 45 1011.4
20260905201504 98 297 3.5 7.0 0.00 0.05 0.05 45 1011.5
20260905201005 98 316 2.6 7.0 0.00 0.05 0.05 45 1011.6
20260905200505 98 322 1.7 5.2 0.00 0.05 0.05 45 1011.6
20260905200004 98 251 1.7 6.1 0.00 0.05 0.05 46 1011.7
20260905195504 98 231 2.6 6.1 0.00 0.05 0.05 46 1011.7
20260905195004 98 228 2.6 5.2 0.00 0.05 0.05 46 1011.8
20260905194504 98 245 1.7 5.2 0.00 0.05 0.05 46 1011.9
20260905194004 97 325 0.9 3.5 0.00 0.05 0.05 46 1011.9
20260905193504 97 275 2.6 6.1 0.00 0.05 0.05 45 1012.0
20260905193004 97 251 2.6 6.1 0.00 0.05 0.05 46 1012.1
20260905192504 97 254 2.6 6.1 0.00 0.05 0.05 47 1012.2
20260905191504 96 204 2.6 5.2 0.00 0.05 0.05 48 1012.3
20260905190504 96 276 0.9 6.1 0.00 0.05 0.05 48 1012.5
20260905190004 96 255 1.7 3.5 0.00 0.05 0.05 47 1012.5
20260905185504 96 187 2.6 6.1 0.00 0.05 0.05 48 1012.5
20260905185004 96 211 2.6 6.1 0.00 0.05 0.05 45 1012.6
20260905184504 96 303 1.7 5.2 0.00 0.05 0.05 47 1012.6
20260905183504 95 236 1.7 4.3 0.00 0.05 0.05 47 1012.8
20260905183004 95 240 1.7 5.2 0.00 0.05 0.05 47 1012.9
20260905182504 95 149 1.7 5.2 0.00 0.05 0.05 46 1013.0
20260905182004 95 89 1.7 4.3 0.00 0.05 0.05 49 1013.1
20260905181504 95 111 1.7 4.3 0.00 0.05 0.05 49 1013.1
20260905181004 94 112 1.7 4.3 0.00 0.05 0.05 48 1013.1
20260905180504 94 128 1.7 6.1 0.00 0.05 0.05 50 1013.2
20260905180004 94 149 1.7 6.1 0.00 0.05 0.05 49 1013.4
20260905175504 94 175 1.7 4.3 0.00 0.05 0.05 49 1013.3
20260905175004 94 196 2.6 6.1 0.00 0.05 0.05 49 1013.3
20260905174504 93 199 2.6 7.0 0.00 0.05 0.05 49 1013.4
20260905173505 93 194 1.7 5.2 0.00 0.05 0.05 51 1013.3
20260905172004 92 115 2.6 7.0 0.00 0.05 0.05 51 1013.5
20260905171504 92 126 1.7 7.0 0.00 0.05 0.05 51 1013.6
20260905171004 92 143 1.7 6.1 0.00 0.05 0.05 53 1013.5
20260905170503 91 122 2.6 7.0 0.00 0.05 0.05 53 1013.6
20260905170004 91 114 3.5 7.0 0.00 0.05 0.05 52 1013.8
20260905165504 91 127 3.5 8.7 0.00 0.05 0.05 53 1013.9
20260905165004 91 138 2.6 8.7 0.00 0.05 0.05 53 1014.1
20260905164504 90 141 2.6 7.8 0.00 0.05 0.05 55 1014.3
20260905164005 90 124 3.5 7.8 0.00 0.05 0.05 54 1014.4
20260905163504 90 115 2.6 7.8 0.00 0.05 0.05 56 1014.3
20260905163004 90 124 2.6 6.1 0.00 0.05 0.05 55 1014.3
20260905162504 90 130 2.6 7.8 0.00 0.05 0.05 55 1014.4
20260905161504 89 142 1.7 5.2 0.00 0.05 0.05 57 1014.3
20260905161005 89 126 2.6 6.1 0.00 0.05 0.05 58 1014.3
20260905160504 88 121 2.6 7.0 0.00 0.05 0.05 56 1014.3
20260905155505 88 140 2.6 7.8 0.00 0.05 0.05 59 1014.3
20260905155004 87 132 2.6 7.0 0.00 0.05 0.05 61 1014.4
20260905154504 87 128 2.6 7.0 0.00 0.05 0.05 60 1014.4
20260905154004 87 105 1.7 7.0 0.00 0.05 0.05 61 1014.6
20260905153504 86 112 2.6 7.8 0.00 0.05 0.05 61 1014.6
20260905153004 86 130 3.5 7.8 0.00 0.05 0.05 62 1014.6
20260905152504 85 134 2.6 7.8 0.00 0.05 0.05 62 1014.5
20260905152004 85 132 2.6 7.0 0.00 0.05 0.05 65 1014.6
20260905151504 84 126 3.5 10.4 0.00 0.05 0.05 64 1014.5
20260905151004 84 124 4.3 10.4 0.00 0.05 0.05 64 1014.5
20260905150504 84 120 4.3 7.8 0.00 0.05 0.05 66 1014.5
20260905145504 83 95 2.6 7.8 0.00 0.05 0.05 68 1014.8
20260905145004 82 88 2.6 7.0 0.00 0.05 0.05 68 1014.8
20260905144504 81 104 3.5 7.8 0.00 0.05 0.05 70 1014.8
20260905144004 81 106 2.6 7.8 0.00 0.05 0.05 72 1014.8
20260905143004 79 90 1.7 7.0 0.01 0.05 0.05 74 1014.9
20260905142504 79 80 1.7 7.0 0.01 0.05 0.05 75 1014.9
20260905142004 78 80 1.7 5.2 0.01 0.05 0.05 76 1014.9
20260905141004 78 62 1.7 7.0 0.01 0.05 0.05 78 1015.0
20260905140503 78 68 1.7 8.7 0.01 0.05 0.05 79 1015.1
20260905140004 78 67 2.6 8.7 0.01 0.05 0.05 79 1015.1
20260905135506 77 67 2.6 7.0 0.01 0.05 0.05 79 1015.1
20260905135004 77 71 2.6 7.0 0.01 0.05 0.05 79 1015.3
20260905134004 78 72 2.6 7.8 0.01 0.05 0.05 80 1015.4
20260905133503 78 59 3.5 8.7 0.02 0.04 0.04 80 1015.3
20260905133004 77 44 2.6 8.7 0.04 0.04 0.04 81 1015.5
20260905132504 77 49 1.7 7.8 0.04 0.04 0.04 82 1015.7
20260905131503 76 58 2.6 8.7 0.04 0.04 0.04 83 1015.7
20260905131004 76 53 2.6 8.7 0.04 0.04 0.04 83 1015.6
20260905130503 76 54 2.6 12.2 0.04 0.04 0.04 83 1015.4
20260905130004 76 56 2.6 12.2 0.04 0.04 0.04 82 1015.2
20260905125504 77 51 1.7 6.1 0.04 0.04 0.04 82 1015.5
20260905125004 77 58 1.7 7.0 0.04 0.04 0.04 82 1015.5
20260905124503 77 65 1.7 7.8 0.04 0.04 0.04 81 1015.5
20260905124005 78 57 1.7 7.8 0.04 0.04 0.04 80 1015.3
20260905123503 78 52 1.7 4.3 0.01 0.01 0.01 79 1015.2
20260905122505 77 130 1.7 4.3 0.00 0.00 0.00 79 1014.6
20260905122004 77 130 0.9 4.3 0.00 0.00 0.00 79 1014.5
20260905121503 77 132 0.9 4.3 0.00 0.00 0.00 79 1014.7
20260905121004 77 127 1.7 4.3 0.00 0.00 0.00 79 1014.5
20260905120503 78 119 1.7 3.5 0.00 0.00 0.00 79 1014.3
20260905120004 78 98 0.9 3.5 0.00 0.00 0.00 79 1014.3
20260905115004 78 64 2.6 9.6 0.00 0.00 0.00 78 1014.4
20260905114503 78 63 2.6 8.7 0.00 0.00 0.00 79 1014.4
20260905113504 78 0 0.0 2.6 0.00 0.00 0.00 79 1014.2
20260905113003 78 0 0.0 1.7 0.00 0.00 0.00 79 1014.0
20260905112504 78 66 0.9 4.3 0.00 0.00 0.00 80 1013.9
20260905112003 78 67 1.7 4.3 0.00 0.00 0.00 80 1013.8
20260905111504 78 65 0.9 4.3 0.00 0.00 0.00 80 1014.0
20260905111004 79 64 0.9 3.5 0.00 0.00 0.00 80 1014.0
20260905110503 79 72 1.7 6.1 0.00 0.00 0.00 80 1013.9
20260905110003 79 71 1.7 6.1 0.00 0.00 0.00 80 1013.7
20260905105504 79 53 1.7 6.1 0.00 0.00 0.00 81 1013.8
20260905105004 79 28 2.6 6.1 0.00 0.00 0.00 80 1013.7
20260905104503 79 17 1.7 5.2 0.00 0.00 0.00 80 1013.7
20260905104004 79 13 0.9 4.3 0.00 0.00 0.00 79 1013.3
20260905103004 79 0 0.0 0.0 0.00 0.00 0.00 79 1012.8
20260905102504 80 0 0.0 0.0 0.00 0.00 0.00 78 1012.8
20260905102003 80 0 0.0 0.0 0.00 0.00 0.00 78 1012.8
20260905101503 80 0 0.0 0.0 0.00 0.00 0.00 78 1013.0
20260905101004 80 0 0.0 0.0 0.00 0.00 0.00 78 1013.0
20260905100503 80 0 0.0 0.0 0.00 0.00 0.00 78 1013.0
20260905095504 80 0 0.0 0.0 0.00 0.00 0.00 78 1013.0
20260905094503 80 0 0.0 0.0 0.00 0.00 0.00 77 1013.0
20260905094004 81 0 0.0 0.0 0.00 0.00 0.00 77 1013.0
20260905093503 81 0 0.0 0.0 0.00 0.00 0.00 77 1013.0
20260905093004 81 0 0.0 1.7 0.00 0.00 0.00 77 1012.9
20260905092004 81 317 0.9 2.6 0.00 0.00 0.00 77 1012.6
20260905091503 81 318 0.9 2.6 0.00 0.00 0.00 77 1012.5
20260905091005 81 0 0.0 0.9 0.00 0.00 0.00 76 1012.7
20260905090503 81 0 0.0 3.5 0.00 0.00 0.00 77 1012.8
20260905090003 81 321 0.9 5.2 0.00 0.00 0.00 77 1012.8
20260905085504 81 324 0.9 5.2 0.00 0.00 0.00 78 1012.9
20260905085004 81 356 0.9 5.2 0.00 0.00 0.00 79 1012.9
20260905084504 81 8 0.9 5.2 0.00 0.00 0.00 79 1012.9
20260905084004 81 323 0.9 6.1 0.00 0.00 0.00 80 1012.7
20260905083503 81 310 0.9 6.1 0.00 0.00 0.00 80 1012.7
20260905083003 81 153 0.9 2.6 0.00 0.00 0.00 80 1012.4
20260905082504 81 155 0.9 2.6 0.00 0.00 0.00 80 1012.4
20260905081504 80 170 0.9 2.6 0.00 0.00 0.00 80 1012.5
20260905081004 80 183 0.9 2.6 0.00 0.00 0.00 81 1012.5
20260905080504 80 0 0.0 1.7 0.00 0.00 0.00 81 1012.5
20260905080004 80 0 0.0 2.6 0.00 0.00 0.00 81 1012.6
20260905075504 80 311 0.9 5.2 0.00 0.00 0.00 81 1012.7
20260905075003 80 310 0.9 5.2 0.00 0.00 0.00 81 1012.6
20260905074004 79 0 0.0 0.0 0.00 0.00 0.00 80 1012.5
20260905073504 80 0 0.0 0.0 0.00 0.00 0.00 80 1012.6
20260905073004 80 0 0.0 0.0 0.00 0.00 0.00 80 1012.7
20260905072504 80 0 0.0 0.0 0.00 0.00 0.00 80 1012.7
20260905072003 80 0 0.0 0.0 0.00 0.00 0.00 80 1012.7
20260905071503 80 0 0.0 0.0 0.00 0.00 0.00 80 1012.7
20260905070004 80 0 0.0 0.0 0.00 0.00 0.00 79 1012.9
20260905065504 80 0 0.0 0.0 0.00 0.00 0.00 79 1012.9
20260905065003 80 0 0.0 0.0 0.00 0.00 0.00 79 1013.0
20260905064504 80 0 0.0 0.0 0.00 0.00 0.00 79 1013.1
20260905064005 80 0 0.0 0.0 0.00 0.00 0.00 79 1013.2
20260905063003 80 0 0.0 0.0 0.00 0.00 0.00 79 1013.3
20260905062504 80 0 0.0 0.0 0.00 0.00 0.00 79 1013.4
20260905062003 81 0 0.0 0.0 0.00 0.00 0.00 78 1013.5
20260905061503 80 0 0.0 0.0 0.00 0.00 0.00 77 1013.5
20260905060004 81 0 0.0 0.0 0.00 0.00 0.00 76 1013.7
20260905055504 81 0 0.0 0.0 0.00 0.00 0.00 76 1013.7
20260905055004 81 0 0.0 0.0 0.00 0.00 0.00 76 1013.8
20260905054503 81 0 0.0 0.0 0.00 0.00 0.00 76 1013.8
20260905054004 81 0 0.0 0.0 0.00 0.00 0.00 76 1013.8
20260905053503 81 0 0.0 0.0 0.00 0.00 0.00 74 1013.8
20260905053004 81 0 0.0 0.0 0.00 0.00 0.00 74 1013.8
20260905052504 82 0 0.0 0.0 0.00 0.00 0.00 74 1013.8
20260905052004 82 0 0.0 0.0 0.00 0.00 0.00 74 1013.8
20260905051504 82 0 0.0 0.0 0.00 0.00 0.00 73 1013.8
20260905050504 82 0 0.0 0.0 0.00 0.00 0.00 73 1013.7
20260905050003 82 0 0.0 0.0 0.00 0.00 0.00 73 1013.8
20260905045505 82 0 0.0 0.0 0.00 0.00 0.00 73 1013.8
20260905045004 82 0 0.0 0.0 0.00 0.00 0.00 73 1013.8
20260905044504 83 0 0.0 0.0 0.00 0.00 0.00 73 1013.8
20260905044004 83 0 0.0 0.0 0.00 0.00 0.00 73 1013.8
20260905043003 83 0 0.0 0.0 0.00 0.00 0.00 72 1013.9
20260905042504 83 0 0.0 0.0 0.00 0.00 0.00 72 1013.9
20260905042004 83 0 0.0 0.0 0.00 0.00 0.00 72 1013.8
20260905041504 83 0 0.0 0.0 0.00 0.00 0.00 72 1013.8
20260905041004 84 0 0.0 0.0 0.00 0.00 0.00 72 1013.8
20260905040503 84 0 0.0 0.0 0.00 0.00 0.00 72 1013.9
20260905040005 84 0 0.0 0.0 0.00 0.00 0.00 72 1013.8
20260905035504 84 0 0.0 0.0 0.00 0.00 0.00 71 1013.8
20260905034503 84 0 0.0 0.0 0.00 0.00 0.00 70 1013.8
20260905034004 84 0 0.0 0.0 0.00 0.00 0.00 70 1013.8
20260905033503 85 0 0.0 0.0 0.00 0.00 0.00 70 1013.8
20260905031504 85 0 0.0 0.0 0.00 0.00 0.00 68 1013.9
20260905031004 85 0 0.0 0.0 0.00 0.00 0.00 68 1013.9
20260905030504 86 0 0.0 0.0 0.00 0.00 0.00 68 1014.0
20260905030004 86 0 0.0 0.0 0.00 0.00 0.00 68 1014.0
20260905025504 86 0 0.0 0.0 0.00 0.00 0.00 68 1014.0
20260905025003 86 0 0.0 0.0 0.00 0.00 0.00 68 1014.0
20260905024503 86 0 0.0 0.0 0.00 0.00 0.00 67 1014.0
20260905024004 86 0 0.0 1.7 0.00 0.00 0.00 67 1013.9
20260905022503 87 0 0.0 0.0 0.00 0.00 0.00 66 1013.7
20260905021503 87 102 0.9 1.7 0.00 0.00 0.00 66 1013.8
20260905021004 88 0 0.0 1.7 0.00 0.00 0.00 65 1013.8
20260905020503 88 0 0.0 1.7 0.00 0.00 0.00 64 1013.8
20260905020003 88 0 0.0 0.0 0.00 0.00 0.00 64 1013.8
20260905015504 88 0 0.0 0.0 0.00 0.00 0.00 64 1013.7
20260905015004 88 0 0.0 0.0 0.00 0.00 0.00 62 1013.7
20260905014504 89 0 0.0 0.0 0.00 0.00 0.00 62 1013.6
20260905014004 89 0 0.0 0.0 0.00 0.00 0.00 62 1013.6
20260905013004 89 0 0.0 0.0 0.00 0.00 0.00 61 1013.5
20260905012504 90 0 0.0 0.0 0.00 0.00 0.00 61 1013.4
20260905012004 90 0 0.0 0.0 0.00 0.00 0.00 60 1013.3
20260905011503 90 0 0.0 1.7 0.00 0.00 0.00 59 1013.2
20260905010503 91 0 0.0 0.0 0.00 0.00 0.00 58 1013.2
20260905010004 91 0 0.0 0.0 0.00 0.00 0.00 58 1013.2
20260905005504 91 0 0.0 0.0 0.00 0.00 0.00 57 1013.2
20260905005004 92 0 0.0 0.9 0.00 0.00 0.00 57 1013.1
20260905004004 92 0 0.0 1.7 0.00 0.00 0.00 56 1013.1
20260905003003 93 83 1.7 2.6 0.00 0.00 0.00 55 1013.0
20260905002506 93 73 0.9 2.6 0.00 0.00 0.00 55 1012.9
20260905002004 94 0 0.0 0.9 0.00 0.00 0.00 53 1012.7
20260905001503 94 0 0.0 0.0 0.00 0.00 0.00 52 1012.8
20260905001004 94 0 0.0 0.0 0.00 0.00 0.00 51 1012.7
20260905000503 95 0 0.0 0.0 0.00 0.00 0.00 51 1012.8
20260905000003 95 0 0.0 0.0 0.00 0.00 0.00 51 1012.8
20260904235504 95 0 0.0 0.0 0.00 0.00 0.00 49 1012.7
20260904235004 95 333 0.9 3.5 0.00 0.00 0.00 49 1012.6
20260904234504 96 280 0.9 3.5 0.00 0.00 0.00 48 1012.7
20260904234004 96 239 0.9 2.6 0.00 0.00 0.00 47 1012.7
20260904233503 96 229 0.9 3.5 0.00 0.00 0.00 47 1012.8
20260904233004 96 193 1.7 3.5 0.00 0.00 0.00 47 1012.8
20260904232504 97 74 0.9 2.6 0.00 0.00 0.00 47 1012.8
20260904232004 97 0 0.0 1.7 0.00 0.00 0.00 46 1012.9
20260904231503 97 67 0.9 2.6 0.00 0.00 0.00 45 1012.9
20260904231004 97 49 0.9 3.5 0.00 0.00 0.00 45 1012.8
20260904230503 98 20 0.9 3.5 0.00 0.00 0.00 45 1012.9
20260904225504 98 8 0.9 3.5 0.00 0.00 0.00 45 1012.9
20260904225004 99 356 1.7 5.2 0.00 0.00 0.00 44 1013.1
20260904224503 99 344 0.9 5.2 0.00 0.00 0.00 43 1013.1
20260904224004 100 332 0.9 3.5 0.00 0.00 0.00 43 1013.2
20260904223503 100 307 0.9 3.5 0.00 0.00 0.00 44 1013.2
20260904223004 100 311 0.9 3.5 0.00 0.00 0.00 44 1013.3
20260904222507 100 353 1.7 5.2 0.00 0.00 0.00 42 1013.3
20260904222004 100 1 2.6 5.2 0.00 0.00 0.00 43 1013.2
20260904221503 101 357 1.7 6.1 0.00 0.00 0.00 44 1013.3
20260904221004 101 5 1.7 6.1 0.00 0.00 0.00 44 1013.3
20260904220004 100 322 0.9 2.6 0.00 0.00 0.00 43 1013.2
20260904215505 100 319 1.7 6.1 0.00 0.00 0.00 44 1013.2
20260904215004 100 328 1.7 6.1 0.00 0.00 0.00 44 1013.2
20260904214004 100 310 2.6 7.0 0.00 0.00 0.00 44 1013.3
20260904213004 100 10 2.6 4.3 0.00 0.00 0.00 43 1013.3
20260904212504 100 350 1.7 6.1 0.00 0.00 0.00 45 1013.2
20260904212004 100 343 2.6 7.0 0.00 0.00 0.00 45 1013.3
20260904211503 99 351 1.7 7.0 0.00 0.00 0.00 45 1013.3
20260904211004 99 342 1.7 5.2 0.00 0.00 0.00 45 1013.4
20260904210503 99 352 1.7 5.2 0.00 0.00 0.00 43 1013.4
20260904205504 99 4 2.6 6.1 0.00 0.00 0.00 46 1013.5